Regional Weather Roundup
Issued by NWS Mobile, AL

Home | Current Version | Previous Version | Text Only | Print | Product List | Glossary On
Versions: 1 2 3 4 5 6 7 8 9 10 11 12 13 14 15 16 17 18 19 20 21 22 23 24 25 26 27
000
ASUS44 KMOB 050812
RWRMOB
REGIONAL WEATHER ROUNDUP
NATIONAL WEATHER SERVICE MOBILE AL
300 AM CDT THU MAY 05 2016

NOTE: "FAIR" INDICATES FEW OR NO CLOUDS BELOW 12,000 FEET WITH NO
      SIGNIFICANT WEATHER AND/OR OBSTRUCTIONS TO VISIBILITY.

  * THESE STATIONS ARE PART OF THE UNIVERSITY OF SOUTH ALABAMA
    MESONET AND ARE NOT UNDER NWS OR FAA QUALITY CONTROL.

ALZ061>064-050900-
COASTAL ALABAMA

CITY           SKY/WX    TMP DP  RH WIND       PRES   REMARKS
MOBILE REG APT CLOUDY    61  53  75 NW5       29.83S
BROOKLEY FIELD PTCLDY    64  51  62 W8        29.83S
USA CAMPUS*    NOT AVBL
DOG RIVER*     NOT AVBL


CITY           SKY/WX    TMP DP  RH WIND       PRES   REMARKS
MOUNT VERNON*  NOT AVBL
SARALAND*      NOT AVBL
BAY MINETTE*   NOT AVBL
LOXLEY*        NOT AVBL
ROBERTSDALE*   NOT AVBL
FAIRHOPE*      NOT AVBL
ELBERTA*       NOT AVBL
FOLEY*         NOT AVBL
GRAND BAY*     NOT AVBL
DAUPHIN ISLND* NOT AVBL
BON SCOUR NWR* NOT AVBL
GULF SHORES    MOCLDY    68  56  63 W10G21    29.80F

$$

ALZ051>060-050900-
INTERIOR SOUTHWEST AND SOUTH CENTRAL ALABAMA

CITY           SKY/WX    TMP DP  RH WIND       PRES   REMARKS
GREENVILLE     CLEAR     57  52  83 N3        29.80S
EVERGREEN      CLOUDY    58  54  86 CALM      29.81F
CASTLEBERRY*   NOT AVBL
ATMORE*        NOT AVBL
DIXIE*         NOT AVBL
ANDALUSIA/OPP  MOCLDY    63  53  70 CALM      29.80R
ANDALUSIA*     NOT AVBL
FLORALA APT    PTCLDY    57  51  80 CALM      29.81S
FLORALA*       NOT AVBL

$$

FLZ001>006-050900-
WESTERN FLORIDA PANHANDLE

CITY           SKY/WX    TMP DP  RH WIND       PRES   REMARKS
PENSACOLA      MOCLDY    66  52  60 W10       29.80S
NAS PENSACOLA  NOT AVBL
MILTON         NOT AVBL
WHTNG S FIELD  CLOUDY    64  53  67 NW3       29.80S


CITY           SKY/WX    TMP DP  RH WIND       PRES   REMARKS
WALNUT HILL*   NOT AVBL
JAY*           NOT AVBL
DUKE FIELD     PTCLDY    60  50  68 W5        29.78F
CRESTVIEW      CLOUDY    62  50  64 W5        29.81F
VALPARAISO     MOCLDY    63  50  62 NW8       29.79S
DESTIN         CLOUDY    69  53  56 NW12G21   29.79S

$$

MSZ076-079-050900-
INTERIOR SOUTHEAST MISSISSIPPI

CITY           SKY/WX    TMP DP  RH WIND       PRES   REMARKS
LEAKESVILLE*   NOT AVBL
AGRICOLA*      NOT AVBL

$$

MARINE OBSERVATIONS

STATION/POSITION TIME  TEMP    WIND        PRES    WAVE
                       AIR SEA DIR/SP/G            HT/PER
                 (UTC) (F)     (DEG/KT/KT) (MB)    (FT/S)
PASCAGOULA       0700   68     290/  6/  9 1009.7F
PETIT BOIS ISLND 0712   72     280/ 16/ 20 1010.5F
GRAND BAY        0600   69     280/  7     1012.0
KATRINA CUT      0700   74     290/ 21       N/A
CEDAR POINT      0700   73     290/ 18     1009.5
E DAUPHIN ISLAND 0800   73     280/ 11/ 13 1009.2F
MIDDLE BAY LIGHT 0700   71     270/ 19     1010.2S
USCG MOBILE BAY  0700   66 74  260/  8/ 10 1010.1F
STATE DOCKS      0700   67                 1009.4F
MEAHER PARK      0700   69     260/ 10     1009.1F
WEEKS BAY        0600   60                   N/A
FORT MORGAN      0700   74     290/ 21/ 24 1009.1F
12 S ORANGE BCH  0750   74 75  270/ 21/ 25 1008.3F   3/ 4
PENSACOLA BAY    0700          280/  4/  6 1009.3F
64 S DAUPHIN ISL 0700   74 75  300/ 16/ 19 1011.0F

$$

SELECTED LOCATIONS ACROSS THE REGION

CITY           SKY/WX    TMP DP  RH WIND       PRES   REMARKS
NEW ORLEANS    CLEAR     64  56  75 W6        29.86F
GULFPORT       CLEAR     63  51  65 W6        29.82F
PASCAGOULA AP  PTCLDY    61  53  75 W5        29.82F
PASCAGOULA*    NOT AVBL
HATTIESBURG    CLEAR     62  51  67 NW5       29.85S
LAUREL         CLEAR     59  48  67 W3        29.85S
MERIDIAN       CLEAR     56  53  90 CALM      29.84S
JACKSON        CLEAR     59  52  77 CALM      29.85F
MONTGOMERY     PTCLDY    58  54  86 W5        29.81S
TROY           CLEAR     54  53  97 CALM      29.80S
KINSTON*       NOT AVBL
GENEVA*        NOT AVBL
ASHFORD*       NOT AVBL
DOTHAN         CLEAR     59  53  80 NW8       29.81S
PANAMA CITY    PTCLDY    59  52  77 NW7       29.78S

$$





USA.gov is the U.S. government's official web portal to all federal, state and local government web resources and services.